Weather History for KBTR - March, 2015

Change the Weather History Date:

Tuesday, March 3, 2015

  Actual Average Record
Temperature  
Mean Temperature 68 °F 59 °F  
Max Temperature 79 °F 70 °F 86 °F (1909)
Min Temperature 56 °F 48 °F 20 °F (1980)
Degree Days  
Heating Degree Days 0 7  
Month to date heating degree days 10 23  
Since 1 July heating degree days 1552 1358  
Cooling Degree Days 3 1  
Month to date cooling degree days 3 3  
Year to date cooling degree days 7 34  
Growing Degree Days 16 (Base 50)    
Moisture  
Dew Point 65 °F    
Average Humidity 87    
Maximum Humidity 100    
Minimum Humidity 74    
Precipitation  
Precipitation 0.07 in 0.15 in 3.69 in (1970)
Month to date precipitation 1.46 0.47  
Year to date precipitation 11.21 11.23  
Snow  
Snow 0.00 in - - ()
Month to date snowfall 0.0  
Since 1 July snowfall T  
Snow Depth 0.00 in    
Sea Level Pressure  
Sea Level Pressure 30.05 in    
Wind  
Wind Speed 8 mph (SSE)    
Max Wind Speed 23 mph    
Max Gust Speed 29 mph    
Visibility 5 miles    
Events Fog , Rain    
T = Trace of Precipitation, MM = Missing Value Source: NWS Daily Summary

Daily Weather History Graph

Daily Weather History Graph

Search for Another Location

Airport or City:

Trip Planner

Search our weather history database for the weather conditions in past years. The results will help you decide how hot, cold, wet, or windy it might be!

Date:

Astronomy

Mar. 03, 2015 Rise Set
Actual Time 6:28 AM CST 6:04 PM CST
Civil Twilight 6:04 AM CST 6:28 PM CST
Nautical Twilight 5:36 AM CST 6:56 PM CST
Astronomical Twilight 5:09 AM CST 7:24 PM CST
Moon 4:32 PM CST (3/3) 5:03 AM CST (3/3)
Length of Visible Light 12h 23m
Length of Day
11h 35m
Waxing Gibbous, 96% of the Moon is Illuminated
Mar 3
Waxing Gibbous
Mar 5
Full
Mar 13
Last Quarter
Mar 20
New
Mar 27
First Quarter

Hourly Weather History & Observations

Time (CST) Temp. Dew Point Humidity Pressure Visibility Wind Dir Wind Speed Gust Speed Precip Events Conditions
12:30 AM 57.0 °F 57.0 °F 100% 30.16 in 0.2 mi Calm Calm - N/A Fog Fog
12:53 AM 57.0 °F 57.0 °F 100% 30.15 in 0.2 mi WSW 3.5 mph - N/A Fog Fog
1:53 AM 57.0 °F 57.0 °F 100% 30.14 in 0.2 mi Calm Calm - N/A Fog Fog
2:53 AM 55.9 °F 55.0 °F 97% 30.12 in 0.2 mi West 4.6 mph - N/A Fog Fog
3:53 AM 55.9 °F 55.9 °F 100% 30.11 in 0.2 mi Calm Calm - N/A Fog Fog
4:53 AM 57.0 °F 57.0 °F 100% 30.11 in 0.2 mi East 3.5 mph - N/A Fog Fog
5:46 AM 57.9 °F 57.9 °F 100% 30.11 in 0.5 mi Calm Calm - N/A Fog Fog
5:53 AM 57.9 °F 57.9 °F 100% 30.11 in 0.5 mi Calm Calm - N/A Fog Fog
6:14 AM 59.0 °F 59.0 °F 100% 30.11 in 0.2 mi Calm Calm - N/A Fog Fog
6:53 AM 60.1 °F 59.0 °F 96% 30.11 in 0.2 mi Calm Calm - N/A Fog Fog
7:53 AM 63.0 °F 63.0 °F 100% 30.11 in 0.2 mi East 3.5 mph - N/A Fog Fog
8:53 AM 66.0 °F 66.0 °F 100% 30.11 in 0.2 mi ESE 6.9 mph - N/A Fog Fog
9:06 AM 66.9 °F 66.9 °F 100% 30.11 in 0.2 mi ESE 8.1 mph - N/A Fog Fog
9:15 AM 68.0 °F 68.0 °F 100% 30.11 in 0.8 mi ESE 8.1 mph - N/A   Overcast
9:23 AM 68.0 °F 68.0 °F 100% 30.11 in 1.5 mi SE 10.4 mph - N/A   Overcast
9:33 AM 68.0 °F 68.0 °F 100% 30.11 in 2.5 mi SE 6.9 mph - N/A   Overcast
9:46 AM 69.1 °F 68.0 °F 96% 30.11 in 3.0 mi SE 9.2 mph - N/A   Overcast
9:53 AM 69.1 °F 68.0 °F 96% 30.11 in 4.0 mi SE 6.9 mph - N/A   Overcast
10:21 AM 72.0 °F 69.1 °F 91% 30.10 in 7.0 mi SSE 9.2 mph - N/A   Overcast
10:41 AM 75.0 °F 69.1 °F 82% 30.09 in 9.0 mi SSE 10.4 mph - N/A   Overcast
10:53 AM 75.0 °F 68.0 °F 79% 30.09 in 10.0 mi SE 10.4 mph - N/A   Mostly Cloudy
11:53 AM 72.0 °F 68.0 °F 87% 30.08 in 1.0 mi SSE 17.3 mph - 0.00 in Rain Light Rain
12:20 PM 73.0 °F 70.0 °F 90% 30.06 in 5.0 mi SSE 12.7 mph - 0.02 in Rain Light Rain
12:53 PM 75.0 °F 70.0 °F 84% 30.04 in 10.0 mi South 10.4 mph - 0.02 in   Overcast
1:00 PM 73.9 °F 69.1 °F 85% 30.04 in 10.0 mi South 12.7 mph - N/A   Overcast
1:53 PM 75.9 °F 69.1 °F 79% 30.01 in 10.0 mi South 18.4 mph 23.0 mph 0.00 in   Overcast
2:53 PM 78.1 °F 69.1 °F 74% 29.98 in 10.0 mi South 15.0 mph - N/A   Mostly Cloudy
3:14 PM 72.0 °F 69.1 °F 91% 29.98 in 2.0 mi South 18.4 mph 29.9 mph 0.04 in Rain Rain
3:24 PM 72.0 °F 69.1 °F 91% 29.98 in 3.0 mi South 18.4 mph - 0.05 in Rain Light Rain
3:35 PM 71.1 °F 69.1 °F 93% 29.98 in 2.0 mi South 16.1 mph 24.2 mph 0.05 in Rain Light Rain
3:53 PM 72.0 °F 69.1 °F 91% 29.97 in 5.0 mi South 15.0 mph - 0.05 in   Overcast
4:00 PM 72.0 °F 69.1 °F 91% 29.97 in 10.0 mi South 10.4 mph 19.6 mph N/A   Overcast
4:53 PM 72.0 °F 69.1 °F 91% 29.97 in 10.0 mi South 15.0 mph - 0.00 in   Mostly Cloudy
5:53 PM 72.0 °F 69.1 °F 91% 29.96 in 10.0 mi South 13.8 mph - N/A   Partly Cloudy
6:53 PM 71.1 °F 69.1 °F 93% 29.97 in 10.0 mi South 6.9 mph - N/A   Mostly Cloudy
7:53 PM 69.1 °F 66.9 °F 93% 29.98 in 10.0 mi South 6.9 mph - N/A   Scattered Clouds
8:53 PM 69.8 °F 66.2 °F 88% 29.98 in 10.0 mi SSE 5.8 mph - N/A   Partly Cloudy
9:16 PM 69.1 °F 66.9 °F 93% 29.98 in 10.0 mi North - - N/A   Mostly Cloudy
9:53 PM 68.0 °F 66.9 °F 96% 29.99 in 8.0 mi ESE 4.6 mph - N/A   Overcast
10:53 PM 68.0 °F 66.9 °F 96% 29.99 in 8.0 mi SSE 6.9 mph - N/A   Mostly Cloudy
11:01 PM 69.1 °F 66.9 °F 93% 29.98 in 7.0 mi SE 6.9 mph - N/A   Mostly Cloudy
11:27 PM 69.1 °F 66.9 °F 93% 29.99 in 8.0 mi SSE 6.9 mph - N/A   Mostly Cloudy
11:53 PM 68.0 °F 66.9 °F 96% 29.98 in 7.0 mi SSE 6.9 mph - N/A   Scattered Clouds
11:58 PM 68.0 °F 66.9 °F 96% 29.98 in 7.0 mi SE 5.8 mph - N/A   Mostly Cloudy